Regional Weather Roundup
Issued by NWS

Home | Current Version | Previous Version | Text Only | Print | Product List | Glossary Off
Versions: 1 2 3 4 5 6 7 8 9 10 11 12 13 14 15 16 17 18 19 20 21 22 23 24 25 26 27 28 29 30 31 32 33 34 35 36 37 38 39 40 41 42 43 44 45 46 47 48 49 50

523
ASUS45 KTFX 211610
RWRMT
MONTANA REGIONAL WEATHER ROUNDUP
NATIONAL WEATHER SERVICE GREAT FALLS MT
900 AM MST TUE FEB 21 2017

NOTE: "FAIR" INDICATES FEW OR NO CLOUDS BELOW 12000 FEET WITH NO
SIGNIFICANT WEATHER AND/OR OBSTRUCTIONS TO VISIBILITY.

MTZ001>007-043-211700-
WEST OF THE DIVIDE

CITY           SKY/WX    TMP DP  RH WIND       PRES   REMARKS
KALISPELL      LGT SNOW  31  30  96 CALM      29.64S FOG
MISSOULA       LGT RAIN  32  32 100 NW5       29.66S VSB 3/4
BUTTE          LGT SNOW  37  30  75 W20G37    29.71R WCI  27
MULLAN PASS    SNOW      27  27 100 SE6       29.56R VSB 1/4 WCI  20
ANACONDA         N/A     39  34  81 SE12G21   29.68R WCI  32
DEER LODGE       N/A     39  34  81 S9        29.67F
EUREKA           N/A     30  28  93 CALM      29.66S
HAMILTON         N/A     36  36 100 S5        29.66R
LIBBY            N/A     30  30 100 CALM      29.65S
PLAINS           N/A     32  27  82 CALM      29.68F VSB 0
RONAN            N/A     34  32  92 CALM      29.71R
$$

MTZ008-052>055-211700-
SOUTHWEST MONTANA

CITY           SKY/WX    TMP DP  RH WIND       PRES   REMARKS
BOZEMAN        SUNNY     40  33  76 NE10      29.70S
DILLON         SUNNY     42  27  55 SW15      29.72R
W YELLOWSTONE  CLOUDY    32  32 100 SW30G43   29.84F WCI  18
ENNIS          SUNNY     43  30  61 S24G31    29.78S
THREE FORKS      N/A     47 -29   3 CALM      29.71R
TWIN BRIDGES     N/A     40  28  62 E9        29.74S
$$

MTZ009-010-012-014-046-048-049-054-211700-
EAST SLOPES AND CENTRAL MONTANA

CITY           SKY/WX    TMP DP  RH WIND       PRES   REMARKS
CUT BANK       CLOUDY    34  25  69 NE6       29.61S WCI  29
GREAT FALLS    CLOUDY    41  34  76 S8        29.61S
MALMSTROM AFB  CLOUDY    38  35  89 SE7       29.62S
HELENA         CLOUDY    32  31  96 W5        29.64S
AUGUSTA        CLOUDY    36  31  80 CALM      29.60S
BOWMANS CRNR   LGT RAIN  36  33  87 S13       29.58F WCI  28
CHOTEAU          N/A     36  30  80 NW8       29.62S WCI  29
CONRAD           N/A     34  32  92 CALM      29.66S
POWER          PTSUNNY   38  31  74 SE3       29.60S
RAYNESFORD     PTSUNNY   40  32  71 SE13      29.62F
ULM            PTSUNNY   40  33  75 MISG      29.61S
$$

MTZ011-013-016-021-045-047-050-051-211700-
NORTH CENTRAL MONTANA

CITY           SKY/WX    TMP DP  RH WIND       PRES   REMARKS
HAVRE          CLOUDY    38  31  76 CALM      29.65R
LEWISTOWN      CLOUDY    39  31  72 E12       29.65F WCI  32
N BAR RANCH    CLOUDY    37  30  75 E5        29.70R
CHINOOK          N/A     37  30  75 CALM      29.67R
DENTON         PTSUNNY   40  35  84 E10       29.61F
FORT BENTON      N/A     36  32  87 MISG      29.65S
GEYSER         CLOUDY    37  33  87 SE5       29.63F
GRASS RANGE    PTSUNNY   38  34  83 SE7       29.65R
JUDITH GAP     PTSUNNY   38  31  77 S13       29.66R WCI  30
ROY            LGT RAIN  41  37  87 MISG      29.66S
STANFORD       PTSUNNY   39  32  75 NE8       29.62F
WINIFRED       DRIZZLE   40  36  87 E5        29.65F
$$

MTZ017>020-022>027-061-062-211700-
NORTHEAST MONTANA

CITY           SKY/WX    TMP DP  RH WIND       PRES   REMARKS
GLASGOW        MOSUNNY   37  32  82 W12       29.65S WCI  29
JORDAN           N/A     44  33  65 W3        29.67S
SIDNEY         CLOUDY    35  32  88 S5        29.68F
WOLF POINT     MOSUNNY   30  29  96 CALM      29.67R
PLENTYWOOD       N/A     32  30  93 NE7       29.63F WCI  26
POPLAR           N/A     30  27  86 SE3       29.68R
SCOBEY           N/A     38  29  70 SW6       29.63F
$$

MTZ028>42-056>058-211700-
SOUTHCENTRAL AND SOUTHEAST MONTANA

CITY           SKY/WX    TMP DP  RH WIND       PRES   REMARKS
BAKER          MOSUNNY   51  33  50 W8        29.73R
BILLINGS       MOSUNNY   49  33  54 SW13      29.68F
LIVINGSTON     CLOUDY    47  32  56 W18       29.67F
MILES CITY     CLOUDY    44  36  73 SE6       29.70F
BIG TIMBER     SUNNY     46  34  61 W17       29.69F
EKALAKA          N/A     53  31  43 W1        29.73S
FORSYTH          N/A     46  41  81 CALM      29.69S VSB 1/2
HARLOWTON      PTSUNNY   37  30  78 E6        29.66S WCI  32
LAUREL           N/A     49  30  48 S2        29.72F
$$

REGIONAL REPORTS...DAKOTAS

CITY           SKY/WX    TMP DP  RH WIND       PRES   REMARKS
WILLISTON      CLOUDY    37  31  78 SW10      29.66S WCI  30
MINOT          SUNNY     41  31  67 NW6       29.64S
DICKINSON      SUNNY     47  31  53 W6        29.68S
BEACH            N/A    N/A N/A N/A MISG        N/A
CROSBY           N/A     37  37 100 SW7       29.64F
TIOGA            N/A     36  36 100 W9        29.66S WCI  29
WATFORD CITY     N/A     36  32  87 CALM      29.67F
BISMARCK       CLOUDY    37  32  82 CALM      29.70S
GRAND FORKS    MOSUNNY   36  31  82 SE8       29.68F HAZE    WCI  30
FARGO          MOSUNNY   40  34  79 S9        29.68F
BUFFALO SD       N/A     54  35  48 W7        29.65F
RAPID CITY     SUNNY     61  33  35 W17       29.75S
$$

REGIONAL REPORTS...WYOMING/IDAHO/WASHINGTON

CITY           SKY/WX    TMP DP  RH WIND       PRES   REMARKS
GILLETTE       SUNNY     54  33  45 SW28G36   29.75S
SHERIDAN       MOSUNNY   48  32  53 VRB6      29.73S
BUFFALO WY     SUNNY     56  29  35 W17G23    29.76F
CODY           LGT RAIN  45  35  68 SW14G25   29.81R
YELLOWSTONE LA   N/A     31  28  89 W12G28    29.90R WCI  22
IDAHO FALLS    PTSUNNY   38  36  92 SW10      29.95R WCI  31
SALMON         CLOUDY    43  34  70 S9        29.73S
BOISE          SUNNY     50  34  54 S17       29.88R
SPOKANE        SNOW      32  31  96 N5        29.67R VSB 1/2
$$

REGIONAL REPORTS...ALBERTA

CITY           SKY/WX    TMP DP  RH WIND       PRES   REMARKS
EDMONTON       CLOUDY    32  27  80 S5        29.65F
CALGARY        LGT SNOW  28  25  86 N3        29.63S FOG
LETHBRIDGE     FOG       30  30 100 E6        29.64R VSB 1/4 WCI  24
MEDICINE HAT   FOG       34  32  93 N6        29.67S VSB 1/4 WCI  29
WATERTON GATE    N/A     32  25  74 NE2         N/A
MILK RIVER       N/A     30  28  93 N6          N/A  WCI  24
$$

REGIONAL REPORTS...SASKATCHEWAN

CITY           SKY/WX    TMP DP  RH WIND       PRES   REMARKS
SWIFT CURRENT  CLOUDY    30  30 100 NE10      29.64R FOG     WCI  21
REGINA         FLURRIES  32  30  93 NE12      29.65R WCI  23
SASKATOON      CLOUDY    32  27  80 N7        29.71R WCI  26
CYPRESS HILLS    N/A     28  27  93 N8          N/A  WCI  20
VAL MARIE        N/A     34  30  86 S7          N/A  WCI  28
ROCKGLEN         N/A     36  34  93 W16G23      N/A  WCI  26
ASSINIBOIA       N/A     32  28  86 SW3         N/A
$$




USA.gov is the U.S. government's official web portal to all federal, state and local government web resources and services.